Location: Chittendens Corners
(41.2320°N, 81.4940°W)
Time: 23:08:06
(UTC+00:00)

Cosmos 2058 Rocket - Pass Details

Date: 29 October 2020
Orbit: 610 x 640 km, 82.5° (Epoch: 29 November)

Event Time Altitude Azimuth Distance (km) Brightness Sun altitude
Rises 23:07:17 0° 182° (S) 2,913 6.7 -8.6°
Reaches altitude 10° 23:09:30 10° 181° (S) 2,013 5.8 -9.1°
Maximum altitude 23:13:58 76° 96° (E) 661 3.1 -9.9°
Drops below altitude 10° 23:18:29 10° 11° (N) 2,039 5.5 -10.7°
Sets 23:20:45 0° 10° (N) 2,953 6.3 -11.1°
